Time,TemperatureF,DewpointF,PressureIn,WindDirection,WindDirectionDegrees,WindSpeedMPH,WindSpeedGustMPH,Humidity,HourlyPrecipIn,Conditions,Clouds,dailyrainin,SoftwareType,DateUTC
2013-02-08 00:03:00,32.4,19.3,30.37,NE,45,5.0,10.0,58,0.00,,,-99.99,WeatherLink 5.7,2013-02-08 05:03:00,
2013-02-08 00:13:00,32.6,19.8,30.36,NE,45,6.0,12.0,59,0.00,,,-99.99,WeatherLink 5.7,2013-02-08 05:13:00,
2013-02-08 00:23:00,32.9,20.1,30.36,NE,45,4.0,9.0,59,0.00,,,-99.99,WeatherLink 5.7,2013-02-08 05:23:00,
2013-02-08 00:33:00,33.1,20.7,30.35,NE,45,4.0,8.0,60,0.00,,,-99.99,WeatherLink 5.7,2013-02-08 05:33:00,
2013-02-08 00:43:00,33.1,20.7,30.35,NE,45,4.0,8.0,60,0.00,,,-99.99,WeatherLink 5.7,2013-02-08 05:43:00,
2013-02-08 00:53:00,33.2,21.2,30.34,NE,45,3.0,6.0,61,0.00,,,-99.99,WeatherLink 5.7,2013-02-08 05:53:00,
2013-02-08 01:03:00,33.3,21.3,30.34,ENE,67,4.0,8.0,61,0.00,,,-99.99,WeatherLink 5.7,2013-02-08 06:03:00,
2013-02-08 01:13:00,34.1,22.0,30.33,East,90,3.0,9.0,61,0.00,,,-99.99,WeatherLink 5.7,2013-02-08 06:13:00,
2013-02-08 01:23:00,35.3,22.8,30.33,East,90,4.0,8.0,60,0.00,,,-99.99,WeatherLink 5.7,2013-02-08 06:23:00,
2013-02-08 01:33:00,35.4,22.9,30.33,ENE,67,4.0,10.0,60,0.00,,,-99.99,WeatherLink 5.7,2013-02-08 06:33:00,
2013-02-08 01:43:00,35.6,23.1,30.32,ENE,67,4.0,12.0,60,0.00,,,-99.99,WeatherLink 5.7,2013-02-08 06:43:00,
2013-02-08 01:53:00,35.6,23.5,30.32,East,90,5.0,11.0,61,0.00,,,-99.99,WeatherLink 5.7,2013-02-08 06:53:00,
2013-02-08 02:03:00,35.1,23.4,30.31,ENE,67,6.0,16.0,62,0.00,,,-99.99,WeatherLink 5.7,2013-02-08 07:03:00,
2013-02-08 02:13:00,34.9,23.2,30.30,East,90,5.0,11.0,62,0.00,,,-99.99,WeatherLink 5.7,2013-02-08 07:13:00,
2013-02-08 02:23:00,34.8,23.5,30.30,ENE,67,6.0,12.0,63,0.00,,,-99.99,WeatherLink 5.7,2013-02-08 07:23:00,
2013-02-08 02:33:00,34.8,23.5,30.29,ENE,67,5.0,13.0,63,0.00,,,-99.99,WeatherLink 5.7,2013-02-08 07:33:00,
2013-02-08 02:44:00,34.9,23.6,30.29,ENE,67,6.0,13.0,63,0.00,,,-99.99,WeatherLink 5.7,2013-02-08 07:44:00,
2013-02-08 02:53:00,34.8,23.5,30.28,ENE,67,5.0,13.0,63,0.00,,,-99.99,WeatherLink 5.7,2013-02-08 07:53:00,
2013-02-08 03:03:00,34.8,23.5,30.28,East,90,6.0,13.0,63,0.00,,,-99.99,WeatherLink 5.7,2013-02-08 08:03:00,
2013-02-08 03:13:00,35.2,23.5,30.27,ENE,67,5.0,11.0,62,0.00,,,-99.99,WeatherLink 5.7,2013-02-08 08:13:00,
2013-02-08 03:23:00,34.9,23.6,30.27,ENE,67,5.0,10.0,63,0.00,,,-99.99,WeatherLink 5.7,2013-02-08 08:23:00,
2013-02-08 03:33:00,34.9,23.9,30.26,ENE,67,6.0,12.0,64,0.00,,,-99.99,WeatherLink 5.7,2013-02-08 08:33:00,
2013-02-08 03:43:00,34.6,23.7,30.25,ENE,67,5.0,11.0,64,0.00,,,-99.99,WeatherLink 5.7,2013-02-08 08:43:00,
2013-02-08 03:53:00,34.7,23.8,30.25,ENE,67,5.0,11.0,64,0.00,,,-99.99,WeatherLink 5.7,2013-02-08 08:53:00,
2013-02-08 04:03:00,34.7,23.8,30.24,ENE,67,5.0,12.0,64,0.00,,,-99.99,WeatherLink 5.7,2013-02-08 09:03:00,
2013-02-08 04:13:00,34.3,23.4,30.24,NE,45,5.0,11.0,64,0.00,,,-99.99,WeatherLink 5.7,2013-02-08 09:13:00,
2013-02-08 04:23:00,33.7,23.2,30.24,NE,45,7.0,13.0,65,0.00,,,-99.99,WeatherLink 5.7,2013-02-08 09:23:00,
2013-02-08 04:33:00,33.4,22.9,30.24,NNE,22,7.0,12.0,65,0.00,,,-99.99,WeatherLink 5.7,2013-02-08 09:33:00,
2013-02-08 04:43:00,33.3,22.8,30.24,NNE,22,7.0,13.0,65,0.00,,,-99.99,WeatherLink 5.7,2013-02-08 09:43:00,
2013-02-08 04:53:00,33.3,22.8,30.24,NNE,22,7.0,13.0,65,0.00,,,-99.99,WeatherLink 5.7,2013-02-08 09:53:00,
2013-02-08 05:03:00,33.2,22.7,30.23,NNE,22,5.0,10.0,65,0.00,,,-99.99,WeatherLink 5.7,2013-02-08 10:03:00,
2013-02-08 05:13:00,33.1,23.0,30.23,NNE,22,7.0,13.0,66,0.00,,,-99.99,WeatherLink 5.7,2013-02-08 10:13:00,
2013-02-08 05:23:00,33.1,23.0,30.22,NNE,22,7.0,13.0,66,0.00,,,-99.99,WeatherLink 5.7,2013-02-08 10:23:00,
2013-02-08 05:33:00,33.0,22.9,30.22,NE,45,7.0,15.0,66,0.00,,,-99.99,WeatherLink 5.7,2013-02-08 10:33:00,
2013-02-08 05:43:00,33.2,23.4,30.20,NE,45,6.0,12.0,67,0.00,,,-99.99,WeatherLink 5.7,2013-02-08 10:43:00,
2013-02-08 05:53:00,33.3,23.5,30.21,NE,45,7.0,13.0,67,0.00,,,-99.99,WeatherLink 5.7,2013-02-08 10:53:00,
2013-02-08 06:03:00,33.5,24.1,30.19,NE,45,7.0,14.0,68,0.00,,,-99.99,WeatherLink 5.7,2013-02-08 11:03:00,
2013-02-08 06:13:00,33.5,25.1,30.19,NE,45,9.0,15.0,71,0.00,,,-99.99,WeatherLink 5.7,2013-02-08 11:13:00,
2013-02-08 06:23:00,33.1,25.7,30.18,NE,45,8.0,17.0,74,0.00,,,-99.99,WeatherLink 5.7,2013-02-08 11:23:00,
2013-02-08 06:33:00,32.5,26.4,30.18,NE,45,8.0,16.0,78,0.00,,,-99.99,WeatherLink 5.7,2013-02-08 11:33:00,
2013-02-08 06:43:00,32.2,27.0,30.17,NE,45,7.0,14.0,81,0.00,,,-99.99,WeatherLink 5.7,2013-02-08 11:43:00,
2013-02-08 06:53:00,32.0,27.1,30.17,NE,45,7.0,15.0,82,0.00,,,-99.99,WeatherLink 5.7,2013-02-08 11:53:00,
2013-02-08 07:03:00,32.0,27.4,30.17,NE,45,8.0,14.0,83,0.00,,,-99.99,WeatherLink 5.7,2013-02-08 12:03:00,
2013-02-08 07:13:00,32.0,27.7,30.16,NE,45,9.0,16.0,84,0.00,,,-99.99,WeatherLink 5.7,2013-02-08 12:13:00,
2013-02-08 07:23:00,32.0,28.0,30.16,NE,45,8.0,16.0,85,0.00,,,-99.99,WeatherLink 5.7,2013-02-08 12:23:00,
2013-02-08 07:33:00,31.9,28.5,30.16,NE,45,6.0,12.0,87,0.00,,,-99.99,WeatherLink 5.7,2013-02-08 12:33:00,
2013-02-08 07:43:00,31.9,28.8,30.16,NE,45,7.0,12.0,88,0.00,,,-99.99,WeatherLink 5.7,2013-02-08 12:43:00,
2013-02-08 07:53:00,31.8,29.2,30.16,NE,45,7.0,14.0,90,0.00,,,-99.99,WeatherLink 5.7,2013-02-08 12:53:00,
2013-02-08 08:03:00,31.8,29.5,30.15,NE,45,7.0,14.0,91,0.00,,,-99.99,WeatherLink 5.7,2013-02-08 13:03:00,
2013-02-08 08:13:00,31.8,29.7,30.14,NNE,22,6.0,12.0,92,0.00,,,-99.99,WeatherLink 5.7,2013-02-08 13:13:00,
2013-02-08 08:23:00,31.9,30.1,30.14,NE,45,7.0,13.0,93,0.00,,,-99.99,WeatherLink 5.7,2013-02-08 13:23:00,
2013-02-08 08:33:00,32.0,30.2,30.13,NE,45,6.0,12.0,93,0.00,,,-99.99,WeatherLink 5.7,2013-02-08 13:33:00,
2013-02-08 08:43:00,32.1,30.6,30.13,NE,45,8.0,15.0,94,0.00,,,-99.99,WeatherLink 5.7,2013-02-08 13:43:00,
2013-02-08 08:53:00,32.2,30.7,30.12,NE,45,8.0,15.0,94,0.00,,,-99.99,WeatherLink 5.7,2013-02-08 13:53:00,
2013-02-08 09:03:00,32.3,31.0,30.11,NE,45,8.0,14.0,95,0.00,,,-99.99,WeatherLink 5.7,2013-02-08 14:03:00,
2013-02-08 09:13:00,32.5,31.2,30.11,NE,45,7.0,14.0,95,0.00,,,-99.99,WeatherLink 5.7,2013-02-08 14:13:00,
2013-02-08 09:23:00,32.6,31.6,30.09,NE,45,8.0,16.0,96,0.00,,,-99.99,WeatherLink 5.7,2013-02-08 14:23:00,
2013-02-08 09:33:00,32.6,31.3,30.08,NE,45,8.0,19.0,95,0.00,,,-99.99,WeatherLink 5.7,2013-02-08 14:33:00,
2013-02-08 09:43:00,32.7,31.7,30.08,NE,45,7.0,15.0,96,0.00,,,-99.99,WeatherLink 5.7,2013-02-08 14:43:00,
2013-02-08 09:53:00,32.9,31.9,30.07,NE,45,6.0,13.0,96,0.00,,,-99.99,WeatherLink 5.7,2013-02-08 14:53:00,
2013-02-08 10:03:00,33.0,32.0,30.07,NE,45,8.0,16.0,96,0.00,,,-99.99,WeatherLink 5.7,2013-02-08 15:03:00,
2013-02-08 10:13:00,33.1,32.1,30.06,NE,45,7.0,15.0,96,0.00,,,-99.99,WeatherLink 5.7,2013-02-08 15:13:00,
2013-02-08 10:23:00,33.2,32.4,30.05,NE,45,7.0,14.0,97,0.00,,,-99.99,WeatherLink 5.7,2013-02-08 15:23:00,
2013-02-08 10:33:00,33.3,32.3,30.04,NE,45,9.0,17.0,96,0.00,,,-99.99,WeatherLink 5.7,2013-02-08 15:33:00,
2013-02-08 10:43:00,33.4,32.4,30.03,NE,45,10.0,19.0,96,0.00,,,-99.99,WeatherLink 5.7,2013-02-08 15:43:00,
2013-02-08 10:53:00,33.5,32.5,30.02,NE,45,10.0,19.0,96,0.00,,,-99.99,WeatherLink 5.7,2013-02-08 15:53:00,
2013-02-08 11:03:00,33.6,32.6,30.01,NE,45,9.0,20.0,96,0.00,,,-99.99,WeatherLink 5.7,2013-02-08 16:03:00,
2013-02-08 11:13:00,33.7,32.7,30.01,NE,45,10.0,21.0,96,0.00,,,-99.99,WeatherLink 5.7,2013-02-08 16:13:00,
2013-02-08 11:23:00,33.9,32.4,29.99,NE,45,12.0,22.0,94,0.00,,,-99.99,WeatherLink 5.7,2013-02-08 16:23:00,
2013-02-08 11:33:00,34.0,32.5,29.99,NE,45,11.0,23.0,94,0.00,,,-99.99,WeatherLink 5.7,2013-02-08 16:33:00,
2013-02-08 11:43:00,34.0,32.2,29.97,NE,45,11.0,23.0,93,0.00,,,-99.99,WeatherLink 5.7,2013-02-08 16:43:00,
2013-02-08 11:53:00,34.0,31.9,29.97,NE,45,11.0,18.0,92,0.00,,,-99.99,WeatherLink 5.7,2013-02-08 16:53:00,
2013-02-08 12:03:00,33.9,31.8,29.95,NE,45,11.0,24.0,92,0.00,,,-99.99,WeatherLink 5.7,2013-02-08 17:03:00,
2013-02-08 12:13:00,33.9,31.8,29.95,NE,45,10.0,23.0,92,0.00,,,-99.99,WeatherLink 5.7,2013-02-08 17:13:00,
2013-02-08 12:23:00,33.8,31.7,29.93,NE,45,12.0,22.0,92,0.00,,,-99.99,WeatherLink 5.7,2013-02-08 17:23:00,
2013-02-08 12:33:00,33.6,31.5,29.92,NE,45,11.0,20.0,92,0.00,,,-99.99,WeatherLink 5.7,2013-02-08 17:33:00,
2013-02-08 12:43:00,33.5,31.2,29.91,NE,45,13.0,24.0,91,0.00,,,-99.99,WeatherLink 5.7,2013-02-08 17:43:00,
2013-02-08 12:53:00,33.4,31.1,29.90,NE,45,11.0,25.0,91,0.00,,,-99.99,WeatherLink 5.7,2013-02-08 17:53:00,
2013-02-08 13:03:00,33.5,31.2,29.89,NE,45,12.0,27.0,91,0.00,,,-99.99,WeatherLink 5.7,2013-02-08 18:03:00,
2013-02-08 13:13:00,33.3,31.0,29.88,NE,45,11.0,20.0,91,0.00,,,-99.99,WeatherLink 5.7,2013-02-08 18:13:00,
2013-02-08 13:23:00,33.3,30.7,29.87,NE,45,12.0,24.0,90,0.00,,,-99.99,WeatherLink 5.7,2013-02-08 18:23:00,
2013-02-08 13:33:00,33.3,30.7,29.86,NE,45,12.0,26.0,90,0.00,,,-99.99,WeatherLink 5.7,2013-02-08 18:33:00,
2013-02-08 13:43:00,33.3,30.7,29.85,NE,45,12.0,20.0,90,0.00,,,-99.99,WeatherLink 5.7,2013-02-08 18:43:00,
2013-02-08 13:53:00,33.4,30.5,29.83,NNE,22,14.0,29.0,89,0.00,,,-99.99,WeatherLink 5.7,2013-02-08 18:53:00,
2013-02-08 14:03:00,33.5,30.3,29.82,NNE,22,16.0,28.0,88,0.00,,,-99.99,WeatherLink 5.7,2013-02-08 19:03:00,
2013-02-08 14:13:00,33.5,30.3,29.81,NNE,22,15.0,27.0,88,0.00,,,-99.99,WeatherLink 5.7,2013-02-08 19:13:00,
2013-02-08 14:23:00,33.4,30.2,29.80,NNE,22,15.0,31.0,88,0.00,,,-99.99,WeatherLink 5.7,2013-02-08 19:23:00,
2013-02-08 14:33:00,33.3,30.7,29.80,NNE,22,15.0,28.0,90,0.00,,,-99.99,WeatherLink 5.7,2013-02-08 19:33:00,
2013-02-08 14:43:00,33.2,30.6,29.79,NNE,22,13.0,25.0,90,0.00,,,-99.99,WeatherLink 5.7,2013-02-08 19:43:00,
2013-02-08 14:53:00,33.1,30.8,29.78,NNE,22,13.0,24.0,91,0.00,,,-99.99,WeatherLink 5.7,2013-02-08 19:53:00,
2013-02-08 15:03:00,33.0,30.7,29.78,NNE,22,11.0,24.0,91,0.00,,,-99.99,WeatherLink 5.7,2013-02-08 20:03:00,
2013-02-08 15:13:00,32.9,30.8,29.78,NNE,22,13.0,22.0,92,0.00,,,-99.99,WeatherLink 5.7,2013-02-08 20:13:00,
2013-02-08 15:23:00,32.8,30.7,29.78,NNE,22,13.0,26.0,92,0.00,,,-99.99,WeatherLink 5.7,2013-02-08 20:23:00,
2013-02-08 15:33:00,32.6,30.5,29.77,NNE,22,12.0,22.0,92,0.00,,,-99.99,WeatherLink 5.7,2013-02-08 20:33:00,
2013-02-08 15:43:00,32.4,30.6,29.77,NNE,22,10.0,19.0,93,0.00,,,-99.99,WeatherLink 5.7,2013-02-08 20:43:00,
2013-02-08 15:53:00,32.3,30.8,29.76,NNE,22,10.0,20.0,94,0.00,,,-99.99,WeatherLink 5.7,2013-02-08 20:53:00,
2013-02-08 16:03:00,32.2,30.7,29.76,North,0,9.0,17.0,94,0.00,,,-99.99,WeatherLink 5.7,2013-02-08 21:03:00,
2013-02-08 16:13:00,32.1,30.8,29.76,NNE,22,9.0,17.0,95,0.00,,,-99.99,WeatherLink 5.7,2013-02-08 21:13:00,
2013-02-08 16:23:00,32.1,30.8,29.76,NNE,22,9.0,19.0,95,0.00,,,-99.99,WeatherLink 5.7,2013-02-08 21:23:00,
2013-02-08 16:33:00,32.0,30.7,29.75,NNE,22,8.0,20.0,95,0.00,,,-99.99,WeatherLink 5.7,2013-02-08 21:33:00,
2013-02-08 16:43:00,31.8,30.8,29.75,NNE,22,10.0,16.0,96,0.00,,,-99.99,WeatherLink 5.7,2013-02-08 21:43:00,
2013-02-08 16:53:00,31.7,30.9,29.74,NNE,22,9.0,15.0,97,0.00,,,-99.99,WeatherLink 5.7,2013-02-08 21:53:00,
2013-02-08 17:03:00,31.6,30.8,29.74,NNE,22,10.0,21.0,97,0.00,,,-99.99,WeatherLink 5.7,2013-02-08 22:03:00,
2013-02-08 17:13:00,31.5,31.0,29.73,North,0,8.0,17.0,98,0.00,,,-99.99,WeatherLink 5.7,2013-02-08 22:13:00,
2013-02-08 17:23:00,31.5,31.3,29.73,North,0,8.0,14.0,99,0.00,,,-99.99,WeatherLink 5.7,2013-02-08 22:23:00,
2013-02-08 17:33:00,31.5,31.3,29.73,NNE,22,9.0,16.0,99,0.00,,,-99.99,WeatherLink 5.7,2013-02-08 22:33:00,
2013-02-08 17:43:00,31.6,31.4,29.72,North,0,8.0,19.0,99,0.00,,,-99.99,WeatherLink 5.7,2013-02-08 22:43:00,
2013-02-08 17:53:00,31.5,31.3,29.72,North,0,11.0,21.0,99,0.00,,,-99.99,WeatherLink 5.7,2013-02-08 22:53:00,
2013-02-08 18:03:00,31.5,31.3,29.72,North,0,9.0,17.0,99,0.00,,,-99.99,WeatherLink 5.7,2013-02-08 23:03:00,
2013-02-08 18:13:00,31.5,31.3,29.71,North,0,10.0,21.0,99,0.00,,,-99.99,WeatherLink 5.7,2013-02-08 23:13:00,
2013-02-08 18:23:00,31.4,31.4,29.72,North,0,11.0,18.0,100,0.00,,,-99.99,WeatherLink 5.7,2013-02-08 23:23:00,
2013-02-08 18:33:00,31.3,31.3,29.71,NNE,22,9.0,21.0,100,0.00,,,-99.99,WeatherLink 5.7,2013-02-08 23:33:00,
2013-02-08 18:43:00,31.3,31.3,29.71,North,0,11.0,20.0,100,0.00,,,-99.99,WeatherLink 5.7,2013-02-08 23:43:00,
2013-02-08 18:53:00,31.3,31.3,29.70,North,0,10.0,22.0,100,0.00,,,-99.99,WeatherLink 5.7,2013-02-08 23:53:00,
2013-02-08 19:03:00,31.2,31.0,29.70,North,0,12.0,22.0,99,0.00,,,-99.99,WeatherLink 5.7,2013-02-09 00:03:00,
2013-02-08 19:13:00,31.0,30.8,29.70,North,0,10.0,20.0,99,0.00,,,-99.99,WeatherLink 5.7,2013-02-09 00:13:00,
2013-02-08 19:23:00,30.9,30.7,29.71,NNE,22,12.0,20.0,99,0.00,,,-99.99,WeatherLink 5.7,2013-02-09 00:23:00,
2013-02-08 19:33:00,30.7,30.2,29.71,North,0,13.0,22.0,98,0.00,,,-99.99,WeatherLink 5.7,2013-02-09 00:33:00,
2013-02-08 19:43:00,30.7,30.2,29.70,North,0,11.0,21.0,98,0.00,,,-99.99,WeatherLink 5.7,2013-02-09 00:43:00,
2013-02-08 19:53:00,30.6,29.9,29.69,NNE,22,11.0,21.0,97,0.00,,,-99.99,WeatherLink 5.7,2013-02-09 00:53:00,
2013-02-08 20:03:00,30.6,29.6,29.70,North,0,9.0,27.0,96,0.00,,,-99.99,WeatherLink 5.7,2013-02-09 01:03:00,
2013-02-08 20:13:00,30.4,29.4,29.70,North,0,10.0,20.0,96,0.00,,,-99.99,WeatherLink 5.7,2013-02-09 01:13:00,
2013-02-08 20:23:00,30.3,29.0,29.70,North,0,10.0,22.0,95,0.00,,,-99.99,WeatherLink 5.7,2013-02-09 01:23:00,
2013-02-08 20:33:00,30.2,28.7,29.69,North,0,11.0,19.0,94,0.00,,,-99.99,WeatherLink 5.7,2013-02-09 01:33:00,
2013-02-08 20:43:00,30.2,28.7,29.70,North,0,9.0,20.0,94,0.00,,,-99.99,WeatherLink 5.7,2013-02-09 01:43:00,
2013-02-08 20:53:00,30.2,28.4,29.70,North,0,10.0,19.0,93,0.00,,,-99.99,WeatherLink 5.7,2013-02-09 01:53:00,
2013-02-08 21:03:00,30.2,28.4,29.72,North,0,9.0,19.0,93,0.00,,,-99.99,WeatherLink 5.7,2013-02-09 02:03:00,
2013-02-08 21:13:00,30.3,28.3,29.73,NW,315,8.0,17.0,92,0.00,,,-99.99,WeatherLink 5.7,2013-02-09 02:13:00,
2013-02-08 21:23:00,30.4,28.1,29.73,NW,315,7.0,14.0,91,0.00,,,-99.99,WeatherLink 5.7,2013-02-09 02:23:00,
2013-02-08 21:33:00,30.4,27.8,29.74,NW,315,9.0,16.0,90,0.00,,,-99.99,WeatherLink 5.7,2013-02-09 02:33:00,
2013-02-08 21:43:00,30.4,27.5,29.74,NW,315,9.0,17.0,89,0.00,,,-99.99,WeatherLink 5.7,2013-02-09 02:43:00,
2013-02-08 21:53:00,29.9,27.6,29.74,NW,315,9.0,16.0,91,0.00,,,-99.99,WeatherLink 5.7,2013-02-09 02:53:00,
2013-02-08 22:03:00,29.7,27.4,29.75,NW,315,8.0,15.0,91,0.00,,,-99.99,WeatherLink 5.7,2013-02-09 03:03:00,
2013-02-08 22:13:00,29.6,27.6,29.75,NW,315,6.0,13.0,92,0.00,,,-99.99,WeatherLink 5.7,2013-02-09 03:13:00,
2013-02-08 22:23:00,29.6,27.6,29.76,NW,315,7.0,14.0,92,0.00,,,-99.99,WeatherLink 5.7,2013-02-09 03:23:00,
2013-02-08 22:33:00,29.2,27.2,29.76,NW,315,9.0,18.0,92,0.00,,,-99.99,WeatherLink 5.7,2013-02-09 03:33:00,
2013-02-08 22:43:00,28.6,26.6,29.77,NNW,337,8.0,16.0,92,0.00,,,-99.99,WeatherLink 5.7,2013-02-09 03:43:00,
2013-02-08 22:53:00,28.3,26.5,29.77,NW,315,8.0,15.0,93,0.00,,,-99.99,WeatherLink 5.7,2013-02-09 03:53:00,
2013-02-08 23:03:00,28.0,26.2,29.78,NW,315,10.0,21.0,93,0.00,,,-99.99,WeatherLink 5.7,2013-02-09 04:03:00,
2013-02-08 23:13:00,27.9,26.1,29.78,NNW,337,9.0,20.0,93,0.00,,,-99.99,WeatherLink 5.7,2013-02-09 04:13:00,
2013-02-08 23:23:00,27.8,26.3,29.79,NNW,337,8.0,15.0,94,0.00,,,-99.99,WeatherLink 5.7,2013-02-09 04:23:00,
2013-02-08 23:33:00,27.8,26.3,29.80,NW,315,7.0,16.0,94,0.00,,,-99.99,WeatherLink 5.7,2013-02-09 04:33:00,
2013-02-08 23:43:00,27.8,26.3,29.80,NNW,337,8.0,20.0,94,0.00,,,-99.99,WeatherLink 5.7,2013-02-09 04:43:00,
2013-02-08 23:53:00,27.5,26.3,29.81,NNW,337,9.0,19.0,95,0.00,,,-99.99,WeatherLink 5.7,2013-02-09 04:53:00,